Location: Kergonan
(48.2337°N, 4.5518°W)
Time: 13:01:20
(UTC+00:00)

USA 215 - Pass Details

Date: 18 January 2020
Orbit: 1098 x 1110 km, 123.0° (Epoch: 24 February)

Event Time Altitude Azimuth Distance (km) Brightness Sun altitude
Rises 05:40:44 0° 148° (SSE) 3,902 6.7 -23.1°
Reaches altitude 10° 05:43:20 10° 155° (SSE) 2,949 5.9 -22.6°
Maximum altitude 05:49:31 45° 226° (SW) 1,469 3.6 -21.6°
Enters shadow 05:51:25 36° 266° (W) 1,671 3.7 -21.3°
